Location: Bottenau
(48.5138°N, 8.0462°E)
Time: 04:09:30
(UTC+00:00)

ATLAS 3B R/B - Pass Details

Date: 27 July 2021
Orbit: 1001 x 1194 km, 63.8° (Epoch: 09 September)

Event Time Altitude Azimuth Distance (km) Brightness Sun altitude
Rises 22:16:06 0° 310° (NW) 3,942 6.7 -20.3°
Reaches altitude 10° 22:19:40 10° 293° (WNW) 3,015 5.6 -20.5°
Maximum altitude 22:24:11 18° 253° (WSW) 2,497 4.6 -20.7°
Enters shadow 22:28:06 12° 219° (SW) 2,930 4.7 -20.9°
